Date,TemperatureHighF,TemperatureAvgF,TemperatureLowF,DewpointHighF,DewpointAvgF,DewpointLowF,HumidityHigh,HumidityAvg,HumidityLow,PressureMaxIn,PressureMinIn,WindSpeedMaxMPH,WindSpeedAvgMPH,GustSpeedMaxMPH,PrecipitationSumIn
2013-9-1,93.0,63.5,41.0,49.0,40.1,31.0,85,51,11,0.00,40.00,3,0,11,0.00
2013-9-2,86.0,63.3,50.0,55.0,48.2,42.0,80,62,26,0.00,40.00,2,0,9,0.00
2013-9-3,86.0,67.4,53.0,57.0,53.0,49.0,89,64,31,0.00,40.00,3,0,15,0.00
2013-9-4,91.0,68.6,52.0,61.0,52.8,50.0,92,64,28,0.00,40.00,5,1,13,0.00
2013-9-5,82.0,66.8,58.0,61.0,56.2,52.0,93,70,45,0.00,40.00,4,0,15,0.00
2013-9-6,66.0,58.6,53.0,58.0,55.5,52.0,96,90,66,0.00,40.00,3,0,9,0.50
2013-9-7,59.0,54.3,48.0,55.0,52.5,47.0,96,94,87,0.00,40.00,1,0,5,0.26
2013-9-17,69.0,53.3,43.0,54.0,47.8,42.0,96,84,46,0.00,40.00,2,0,7,0.30
2013-9-18,50.0,46.0,39.0,49.0,44.8,38.0,96,95,94,0.00,40.00,1,0,8,0.15
2013-9-19,69.0,47.6,34.0,48.0,39.7,33.0,96,79,36,0.00,40.00,2,0,9,0.02
2013-9-20,76.0,53.1,34.0,46.0,39.2,33.0,96,68,23,0.00,40.00,4,1,15,0.00
2013-9-21,65.0,52.7,43.0,49.0,44.1,40.0,94,74,46,0.00,40.00,4,0,13,0.01
2013-9-22,58.0,47.4,39.0,47.0,42.1,38.0,96,83,62,0.00,40.00,4,1,14,0.08
2013-9-23,55.0,48.5,37.0,44.0,41.4,36.0,96,77,62,0.00,40.00,4,1,13,0.07
2013-9-24,56.0,46.0,38.0,47.0,41.0,35.0,95,84,53,0.00,40.00,2,0,10,0.11
2013-9-25,49.0,41.2,33.0,45.0,39.4,32.0,96,93,85,0.00,40.00,0,0,8,0.08
2013-9-26,59.0,44.2,35.0,44.0,37.7,33.0,96,81,38,0.00,40.00,2,0,10,0.01
2013-9-27,49.0,39.8,31.0,41.0,35.4,30.0,95,85,60,0.00,40.00,4,0,13,0.01
2013-9-28,55.0,47.8,42.0,49.0,45.0,39.0,94,90,79,0.00,40.00,7,2,30,1.29
2013-9-29,50.0,45.8,42.0,46.0,40.6,36.0,91,82,69,0.00,40.00,8,3,23,0.85
2013-9-30,49.0,44.9,39.0,45.0,38.6,32.0,92,79,59,0.00,40.00,8,2,23,0.48